When you browse on this site, cookies collect data to enhance your experience and personalize the content and advertising you see.
Visit our Privacy Policy to learn more. By continuing to use the site, you agree to this use of cookies and data.
  • en Suisse
  • Liste des pays
  • À 7 jours
  • Température de l'eau
  • Carte satellitaire
  • Carte météo
  • Widgets météo
  • user-avatar
    Se connecter

    Météo par heure à Changchun

    Ce jour, 18 Juin, Mardi

    Heure Température Précipitation Vent Pression Humidité
    00:00 +16°C° 0 mm 2 m/s 737 mmHg 50%
    01:00 +16°C° 0 mm 2 m/s 736 mmHg 51%
    02:00 +16°C° 0 mm 2 m/s 736 mmHg 51%
    03:00 +16°C° 0 mm 2 m/s 736 mmHg 53%
    04:00 +15°C° 0 mm 2 m/s 736 mmHg 55%
    05:00 +15°C° 0 mm 2 m/s 736 mmHg 58%
    06:00 +18°C° 0 mm 2 m/s 736 mmHg 53%
    07:00 +20°C° 0 mm 2 m/s 737 mmHg 47%
    08:00 +24°C° 0 mm 2 m/s 737 mmHg 45%
    09:00 +25°C° 0 mm 2 m/s 737 mmHg 41%
    10:00 +26°C° 0 mm 2 m/s 737 mmHg 38%
    11:00 +27°C° 0 mm 2 m/s 736 mmHg 34%
    12:00 +28°C° 0 mm 2 m/s 736 mmHg 33%
    13:00 +29°C° 0 mm 3 m/s 736 mmHg 31%
    14:00 +29°C° 0 mm 3 m/s 735 mmHg 30%
    15:00 +29°C° 0 mm 3 m/s 735 mmHg 32%
    16:00 +29°C° 0 mm 3 m/s 735 mmHg 34%
    17:00 +28°C° 0 mm 3 m/s 735 mmHg 36%
    18:00 +26°C° 0 mm 3 m/s 735 mmHg 40%
    19:00 +24°C° 0 mm 2 m/s 735 mmHg 44%
    20:00 +21°C° 0 mm 2 m/s 735 mmHg 48%
    21:00 +20°C° 0 mm 2 m/s 735 mmHg 50%
    22:00 +19°C° 0 mm 2 m/s 735 mmHg 52%
    23:00 +18°C° 0 mm 2 m/s 735 mmHg 55%

    Demain, 19 Juin, Mercredi

    Heure Température Précipitation Vent Pression Humidité
    00:00 +18°C° 0 mm 2 m/s 735 mmHg 56%
    01:00 +18°C° 0 mm 2 m/s 735 mmHg 56%
    02:00 +17°C° 0 mm 2 m/s 735 mmHg 57%
    03:00 +17°C° 0 mm 2 m/s 735 mmHg 60%
    04:00 +17°C° 0 mm 3 m/s 735 mmHg 63%
    05:00 +17°C° 0 mm 3 m/s 734 mmHg 66%
    06:00 +20°C° 0 mm 4 m/s 734 mmHg 65%
    07:00 +22°C° 0 mm 5 m/s 734 mmHg 64%
    08:00 +24°C° 0 mm 6 m/s 734 mmHg 63%
    09:00 +27°C° 0 mm 6 m/s 734 mmHg 56%
    10:00 +29°C° 0 mm 7 m/s 733 mmHg 48%
    11:00 +32°C° 0 mm 8 m/s 733 mmHg 41%
    12:00 +32°C° 0 mm 7 m/s 732 mmHg 38%
    13:00 +33°C° 0 mm 6 m/s 732 mmHg 35%
    14:00 +33°C° 0 mm 6 m/s 731 mmHg 33%
    15:00 +32°C° 0 mm 5 m/s 731 mmHg 34%
    16:00 +32°C° 0 mm 5 m/s 731 mmHg 36%
    17:00 +30°C° 0 mm 4 m/s 730 mmHg 37%
    18:00 +28°C° 0 mm 4 m/s 731 mmHg 41%
    19:00 +27°C° 0 mm 3 m/s 731 mmHg 45%
    20:00 +26°C° 0 mm 2 m/s 731 mmHg 48%
    21:00 +24°C° 0.1 mm 3 m/s 731 mmHg 55%
    22:00 +22°C° 0.1 mm 3 m/s 731 mmHg 61%
    23:00 +21°C° 0.1 mm 4 m/s 732 mmHg 67%

    Après-demain, 20 Juin, Jeudi

    Heure Température Précipitation Vent Pression Humidité
    00:00 +19°C° 0.1 mm 4 m/s 732 mmHg 70%
    01:00 +18°C° 0.1 mm 4 m/s 731 mmHg 72%
    02:00 +17°C° 0.1 mm 4 m/s 731 mmHg 74%
    03:00 +17°C° 0.1 mm 3 m/s 731 mmHg 73%
    04:00 +17°C° 0.1 mm 3 m/s 732 mmHg 71%
    05:00 +17°C° 0.1 mm 2 m/s 732 mmHg 69%
    06:00 +19°C° 0 mm 2 m/s 732 mmHg 63%
    07:00 +20°C° 0 mm 2 m/s 733 mmHg 57%
    08:00 +23°C° 0 mm 2 m/s 733 mmHg 50%
    09:00 +24°C° 0 mm 2 m/s 734 mmHg 46%
    10:00 +24°C° 0 mm 3 m/s 734 mmHg 41%
    11:00 +25°C° 0 mm 3 m/s 734 mmHg 36%
    12:00 +26°C° 0 mm 4 m/s 734 mmHg 35%
    13:00 +26°C° 0 mm 5 m/s 734 mmHg 35%
    14:00 +27°C° 0 mm 7 m/s 734 mmHg 35%
    15:00 +26°C° 0 mm 6 m/s 734 mmHg 36%
    16:00 +24°C° 0 mm 6 m/s 734 mmHg 37%
    17:00 +23°C° 0 mm 6 m/s 734 mmHg 39%
    18:00 +21°C° 0 mm 5 m/s 734 mmHg 45%
    19:00 +19°C° 0 mm 4 m/s 735 mmHg 52%
    20:00 +17°C° 0 mm 3 m/s 735 mmHg 58%
    21:00 +17°C° 0 mm 2 m/s 736 mmHg 60%
    22:00 +16°C° 0 mm 2 m/s 736 mmHg 63%
    23:00 +16°C° 0 mm 2 m/s 736 mmHg 65%

    21 Juin, Vendredi

    Heure Température Précipitation Vent Pression Humidité
    00:00 +15°C° 0 mm 2 m/s 736 mmHg 66%
    01:00 +15°C° 0 mm 2 m/s 736 mmHg 68%
    02:00 +15°C° 0 mm 1 m/s 736 mmHg 70%
    03:00 +15°C° 0 mm 2 m/s 737 mmHg 71%
    04:00 +15°C° 0 mm 2 m/s 737 mmHg 72%
    05:00 +15°C° 0 mm 2 m/s 737 mmHg 73%
    06:00 +17°C° 0 mm 2 m/s 737 mmHg 67%
    07:00 +18°C° 0 mm 3 m/s 738 mmHg 61%
    08:00 +20°C° 0 mm 3 m/s 738 mmHg 55%
    09:00 +22°C° 0 mm 3 m/s 738 mmHg 53%
    10:00 +23°C° 0 mm 4 m/s 738 mmHg 50%
    11:00 +25°C° 0 mm 4 m/s 738 mmHg 47%
    12:00 +26°C° 0 mm 5 m/s 737 mmHg 47%
    13:00 +26°C° 0 mm 5 m/s 737 mmHg 47%
    14:00 +27°C° 0 mm 5 m/s 737 mmHg 46%
    15:00 +26°C° 0 mm 5 m/s 737 mmHg 48%
    16:00 +26°C° 0 mm 5 m/s 736 mmHg 49%
    17:00 +26°C° 0 mm 5 m/s 736 mmHg 50%
    18:00 +23°C° 0 mm 4 m/s 737 mmHg 56%
    19:00 +22°C° 0 mm 3 m/s 737 mmHg 62%
    20:00 +20°C° 0 mm 2 m/s 737 mmHg 68%
    21:00 +21°C° 0 mm 1 m/s 737 mmHg 70%
    22:00 +20°C° 0 mm 1 m/s 737 mmHg 72%
    23:00 +19°C° 0 mm 1 m/s 737 mmHg 74%

    22 Juin, Samedi

    Heure Température Précipitation Vent Pression Humidité
    00:00 +19°C° 0 mm 1 m/s 737 mmHg 75%
    01:00 +18°C° 0 mm 1 m/s 737 mmHg 76%
    02:00 +18°C° 0 mm 1 m/s 737 mmHg 77%
    03:00 +16°C° 0 mm 0 m/s 737 mmHg 77%
    04:00 +16°C° 0 mm 0 m/s 737 mmHg 76%
    05:00 +17°C° 0 mm 0 m/s 737 mmHg 76%
    06:00 +21°C° 0 mm 1 m/s 737 mmHg 68%
    07:00 +23°C° 0 mm 1 m/s 738 mmHg 61%
    08:00 +25°C° 0 mm 2 m/s 738 mmHg 53%
    09:00 +26°C° 0 mm 2 m/s 738 mmHg 48%
    10:00 +27°C° 0 mm 2 m/s 737 mmHg 43%
    11:00 +29°C° 0 mm 3 m/s 737 mmHg 39%
    12:00 +29°C° 0 mm 3 m/s 737 mmHg 38%
    13:00 +29°C° 0 mm 2 m/s 736 mmHg 38%
    14:00 +29°C° 0 mm 2 m/s 736 mmHg 38%
    15:00 +28°C° 0 mm 3 m/s 736 mmHg 41%
    16:00 +28°C° 0 mm 4 m/s 736 mmHg 44%
    17:00 +27°C° 0 mm 4 m/s 735 mmHg 48%
    18:00 +25°C° 0 mm 4 m/s 735 mmHg 55%
    19:00 +22°C° 0 mm 3 m/s 736 mmHg 61%
    20:00 +20°C° 0 mm 2 m/s 736 mmHg 68%
    21:00 +20°C° 0 mm 2 m/s 736 mmHg 71%
    22:00 +19°C° 0 mm 2 m/s 736 mmHg 73%
    23:00 +19°C° 0 mm 2 m/s 736 mmHg 76%

    23 Juin, Dimanche

    Heure Température Précipitation Vent Pression Humidité
    00:00 +20°C° 0 mm 1 m/s 736 mmHg 75%
    01:00 +19°C° 0 mm 1 m/s 736 mmHg 75%
    02:00 +17°C° 0 mm 0 m/s 736 mmHg 75%
    03:00 +17°C° 0 mm 0 m/s 736 mmHg 75%
    04:00 +17°C° 0 mm 0 m/s 736 mmHg 74%
    05:00 +20°C° 0 mm 1 m/s 736 mmHg 74%
    06:00 +21°C° 0 mm 1 m/s 737 mmHg 68%
    07:00 +23°C° 0 mm 2 m/s 737 mmHg 61%
    08:00 +25°C° 0 mm 2 m/s 737 mmHg 55%
    09:00 +26°C° 0 mm 2 m/s 737 mmHg 51%
    10:00 +27°C° 0 mm 3 m/s 737 mmHg 47%
    11:00 +28°C° 0 mm 3 m/s 737 mmHg 43%
    12:00 +29°C° 0 mm 3 m/s 737 mmHg 41%
    13:00 +30°C° 0 mm 2 m/s 736 mmHg 39%
    14:00 +30°C° 0 mm 2 m/s 736 mmHg 37%
    15:00 +30°C° 0 mm 2 m/s 736 mmHg 38%
    16:00 +30°C° 0 mm 2 m/s 736 mmHg 39%
    17:00 +30°C° 0 mm 3 m/s 735 mmHg 41%
    18:00 +27°C° 0 mm 2 m/s 736 mmHg 47%
    19:00 +25°C° 0 mm 2 m/s 736 mmHg 54%
    20:00 +23°C° 0 mm 2 m/s 736 mmHg 61%
    21:00 +23°C° 0 mm 2 m/s 737 mmHg 63%
    22:00 +21°C° 0 mm 2 m/s 737 mmHg 65%
    23:00 +22°C° 0 mm 1 m/s 737 mmHg 67%
    Voir plus